FENGYUN 3A

Satellite information

Favourite Embed

Satellite Type and Status

PAYLOADIN ORBIT

Key statistics

Satellite FENGYUN 3A at a glance.

Uptime

6365

Days in orbit

Revolutions

≈ 14.2

Per day

Orbit

SSO

Sun Synchronous Orbit

Inclination

98.7

Latest

Satellite identification and parameters

Extended collection of information and parameters for FENGYUN 3A.

Object identification

Identified? True

Debris? False

Object name: FENGYUN 3A

International designator: 2008-026A

Object number (NORAD): 32958

Object ID (CCSDS): 32958

Country: PEOPLES REPUBLIC OF CHINA (PRC)

Current information (Y/N): Y

RCS size: LARGE

Orbital parameters

Period: 101.445 minutes

Inclination: 98.662 deg

SMA: 7205.205 km

Apoapsis: 834.146 km

Periapsis: 819.994 km

RAAN: 243.3102 deg

Eccentricy: 0.00098208

Argument of periapsis: 73.3326 deg

Mean anomaly: 286.8928 deg

Mean motion: 14.19492952 rev/day

Mean motion (dot): 0.00000174 rev/day2

B* drag term: 0.00010324393 1/REarth

Two-line elements (TLE)

Creation date: Oct. 30, 2025, 3:32 a.m.

Reference frame: TEME

Reference center: EARTH

Epoch: Oct. 29, 2025, 8:13 p.m. UTC

TLE line 0: 0 FENGYUN 3A

TLE line 1: 1 32958U 08026A 25302.84273040 .00000174 00000-0 10324-3 0 9998

TLE line 2: 2 32958 98.6620 243.3102 0009821 73.3326 286.8928 14.19492952902728

Live tracking on map

Real-time ground track for satellite FENGYUN 3A.

In-orbit conjunctions

There are no conjunctions computed for FENGYUN 3A, at the moment. Check back to stay up to date, as we update our databases every day.

Go to all conjunctions

Associated space launch

Chinese 2nd generation polar orbiting meteorological satellite

FENGYUN 3A was lifted into orbit during the mission ‘Long March 4C | Feng Yun 3A’, on board a Long March 4C space rocket.

The launch took place on May 27, 2008, 3:02 a.m. from Launch Complex 7.

For more information about the launch, click the button.

Launch to space Long March 4C | Feng Yun 3A
Long March 4C | Feng Yun 3A

Agency: N/A

Status: Launch Successful

Launch date: May 27, 2008, 3:02 a.m. UTC

Rocket: Long March 4C

Launch pad: Launch Complex 7

Location: Taiyuan Satellite Launch Center, People's Republic of China

...

Latest news about this satellite

There are no fresh news available about this satellite. Check back as we update our databases every day.


Newsletter sign-up

Weekly statistics, charts and insights to help you stay on top of the space industry.